AA7F Weather Reports


Display with metric or nautical units.
time (UTC)temp
F
wind
direction
speed
MPH
gust
MPH
rain 1hr
in
rain 24hr
in
rain mn
in
humidity
%
barometer
mb
20260503035821 67 285 0.0 0.0 0.00 0.00 0.00 46 1011.9
20260503035317 68 339 0.0 0.0 0.00 0.00 0.00 44 1011.7
20260503034815 69 308 0.0 0.0 0.00 0.00 0.00 42 1011.7
20260503034312 70 354 0.0 0.0 0.00 0.00 0.00 42 1011.3
20260503033809 70 339 0.0 1.0 0.00 0.00 0.00 40 1011.6
20260503033306 71 316 0.0 1.0 0.00 0.00 0.00 40 1011.3
20260503032805 70 315 0.0 0.0 0.00 0.00 0.00 41 1011.4
20260503032304 71 343 0.0 0.0 0.00 0.00 0.00 40 1011.4
20260503031800 72 311 0.0 1.0 0.00 0.00 0.00 38 1011.1
20260503031258 71 326 0.0 3.0 0.00 0.00 0.00 38 1011.2
20260503030754 72 313 0.0 1.0 0.00 0.00 0.00 41 1011.1
20260503030250 72 341 3.0 6.0 0.00 0.00 0.00 39 1011.0
20260503025747 73 319 3.0 8.0 0.00 0.00 0.00 37 1010.9
20260503025245 73 339 0.0 7.0 0.00 0.00 0.00 37 1011.0
20260503024742 73 340 1.0 2.0 0.00 0.00 0.00 38 1011.0
20260503024238 73 319 0.0 1.0 0.00 0.00 0.00 38 1010.9
20260503023735 73 309 1.0 3.0 0.00 0.00 0.00 38 1010.9
20260503023232 74 314 2.0 3.0 0.00 0.00 0.00 38 1010.9
20260503022728 74 339 0.0 2.0 0.00 0.00 0.00 38 1010.7
20260503022228 74 319 0.0 3.0 0.00 0.00 0.00 37 1010.9
20260503021725 74 311 0.0 3.0 0.00 0.00 0.00 39 1010.9
20260503021221 74 313 0.0 2.0 0.00 0.00 0.00 40 1010.8
20260503020719 74 322 1.0 7.0 0.00 0.00 0.00 38 1010.9
20260503020217 74 344 2.0 7.0 0.00 0.00 0.00 39 1010.9
20260503015713 74 336 2.0 6.0 0.00 0.00 0.00 39 1010.9
20260503015210 74 330 0.0 2.0 0.00 0.00 0.00 39 1010.6
20260503014706 74 337 0.0 2.0 0.00 0.00 0.00 41 1011.1
20260503014204 74 338 0.0 5.0 0.00 0.00 0.00 43 1010.9
20260503013701 75 332 0.0 6.0 0.00 0.00 0.00 42 1010.6
20260503013159 77 334 0.0 0.0 0.00 0.00 0.00 41 1010.8
20260503012656 78 324 0.0 0.0 0.00 0.00 0.00 37 1010.8
20260503012153 79 305 0.0 1.0 0.00 0.00 0.00 38 1010.8
20260503011649 80 308 0.0 1.0 0.00 0.00 0.00 35 1010.6
20260503011146 80 272 0.0 0.0 0.00 0.00 0.00 33 1011.0
20260503010642 80 290 0.0 0.0 0.00 0.00 0.00 34 1010.7
20260503010139 80 251 0.0 1.0 0.00 0.00 0.00 30 1010.7
20260503005637 80 310 0.0 1.0 0.00 0.00 0.00 32 1011.0
20260503005134 80 282 0.0 1.0 0.00 0.00 0.00 30 1010.9
20260503004630 80 263 3.0 7.0 0.00 0.00 0.00 28 1011.0
20260503004129 80 285 0.0 0.0 0.00 0.00 0.00 32 1010.8
20260503003625 80 271 0.0 0.0 0.00 0.00 0.00 26 1011.0
20260503003122 81 267 0.0 0.0 0.00 0.00 0.00 27 1010.9
20260503002619 81 296 0.0 0.0 0.00 0.00 0.00 26 1011.0
20260503002116 81 252 0.0 0.0 0.00 0.00 0.00 27 1011.2
20260503001612 81 292 0.0 3.0 0.00 0.00 0.00 28 1011.2
20260503001109 81 249 0.0 6.0 0.00 0.00 0.00 26 1011.1
20260503000607 80 241 1.0 2.0 0.00 0.00 0.00 26 1011.1
20260503000104 81 286 0.0 2.0 0.00 0.00 0.00 26 1011.2
20260502235600 81 267 0.0 2.0 0.00 0.00 0.00 27 1011.0
20260502235058 81 280 0.0 1.0 0.00 0.00 0.00 27 1011.1
20260502234554 81 293 0.0 0.0 0.00 0.00 0.00 31 1011.3
20260502234052 81 292 0.0 1.0 0.00 0.00 0.00 27 1011.4
20260502233552 81 312 0.0 3.0 0.00 0.00 0.00 28 1011.2
20260502233049 82 267 0.0 0.0 0.00 0.00 0.00 26 1011.4
20260502232545 82 243 0.0 0.0 0.00 0.00 0.00 34 1011.4
20260502232043 81 266 0.0 0.0 0.00 0.00 0.00 28 1011.4
20260502231539 81 274 0.0 1.0 0.00 0.00 0.00 32 1011.4
20260502231037 81 265 1.0 5.0 0.00 0.00 0.00 29 1011.7
20260502230535 81 271 3.0 6.0 0.00 0.00 0.00 30 1011.8
20260502230034 81 210 0.0 0.0 0.00 0.00 0.00 30 1011.9
20260502225529 81 204 0.0 0.0 0.00 0.00 0.00 29 1011.9
20260502225026 81 268 0.0 5.0 0.00 0.00 0.00 28 1011.8
20260502224522 81 223 0.0 0.0 0.00 0.00 0.00 34 1012.1
20260502224019 80 317 0.0 0.0 0.00 0.00 0.00 35 1012.1
20260502223517 81 226 1.0 2.0 0.00 0.00 0.00 27 1011.9
20260502223015 81 233 0.0 0.0 0.00 0.00 0.00 31 1012.1
20260502222512 81 220 0.0 0.0 0.00 0.00 0.00 31 1012.2
20260502222009 81 219 0.0 0.0 0.00 0.00 0.00 29 1012.3
20260502221504 81 209 0.0 0.0 0.00 0.00 0.00 27 1012.4
20260502221002 82 205 0.0 0.0 0.00 0.00 0.00 33 1012.2
20260502220457 82 263 0.0 0.0 0.00 0.00 0.00 26 1012.5
20260502215954 82 131 0.0 0.0 0.00 0.00 0.00 28 1012.7
20260502215451 82 239 0.0 0.0 0.00 0.00 0.00 28 1012.6
20260502214948 82 168 0.0 0.0 0.00 0.00 0.00 34 1012.6
20260502214445 81 68 0.0 0.0 0.00 0.00 0.00 36 1012.7
20260502213942 81 183 0.0 0.0 0.00 0.00 0.00 33 1012.8
20260502213439 81 98 0.0 0.0 0.00 0.00 0.00 37 1012.9
20260502212938 81 111 0.0 0.0 0.00 0.00 0.00 31 1012.9
20260502212436 81 127 0.0 0.0 0.00 0.00 0.00 29 1012.9
20260502211933 81 138 0.0 0.0 0.00 0.00 0.00 35 1013.0
20260502211428 80 126 0.0 0.0 0.00 0.00 0.00 33 1013.2
20260502210926 80 189 0.0 0.0 0.00 0.00 0.00 33 1013.2
20260502210423 80 154 0.0 0.0 0.00 0.00 0.00 31 1013.2
20260502205920 80 184 0.0 0.0 0.00 0.00 0.00 33 1013.5
20260502205416 79 112 0.0 0.0 0.00 0.00 0.00 31 1013.2
20260502204914 79 171 0.0 0.0 0.00 0.00 0.00 33 1013.3
20260502204410 79 136 0.0 0.0 0.00 0.00 0.00 38 1013.5
20260502203908 79 151 0.0 0.0 0.00 0.00 0.00 32 1013.4
20260502203405 78 83 0.0 0.0 0.00 0.00 0.00 36 1013.7
20260502202901 78 170 0.0 0.0 0.00 0.00 0.00 37 1013.6
20260502202358 78 91 0.0 1.0 0.00 0.00 0.00 44 1013.7
20260502201856 78 117 0.0 3.0 0.00 0.00 0.00 39 1013.7
20260502201352 77 88 0.0 0.0 0.00 0.00 0.00 42 1014.0
20260502200849 76 101 0.0 0.0 0.00 0.00 0.00 41 1014.0
20260502200344 76 111 0.0 1.0 0.00 0.00 0.00 47 1014.1
20260502195843 76 154 0.0 3.0 0.00 0.00 0.00 41 1014.1
20260502195339 75 145 0.0 2.0 0.00 0.00 0.00 42 1013.8
20260502194836 76 107 0.0 2.0 0.00 0.00 0.00 39 1014.2
20260502194333 75 108 1.0 3.0 0.00 0.00 0.00 40 1014.0
20260502193828 75 102 0.0 5.0 0.00 0.00 0.00 39 1014.2
20260502193326 75 101 0.0 2.0 0.00 0.00 0.00 46 1014.4
20260502192821 74 114 1.0 5.0 0.00 0.00 0.00 42 1014.5
20260502192318 73 70 0.0 7.0 0.00 0.00 0.00 46 1014.2
20260502191816 73 106 1.0 6.0 0.00 0.00 0.00 40 1014.4
20260502191314 72 125 0.0 5.0 0.00 0.00 0.00 44 1014.7
20260502190810 72 101 2.0 6.0 0.00 0.00 0.00 42 1014.7
20260502190308 72 78 0.0 6.0 0.00 0.00 0.00 45 1014.8
20260502185803 72 98 2.0 5.0 0.00 0.00 0.00 42 1014.9
20260502185259 71 86 5.0 7.0 0.00 0.00 0.00 45 1014.7
20260502184756 71 83 3.0 7.0 0.00 0.00 0.00 45 1014.9
20260502184251 71 84 4.0 5.0 0.00 0.00 0.00 44 1015.0
20260502183748 71 82 0.0 2.0 0.00 0.00 0.00 53 1015.1
20260502183245 70 104 4.0 6.0 0.00 0.00 0.00 46 1014.9
20260502182740 70 76 0.0 5.0 0.00 0.00 0.00 47 1015.0
20260502182235 69 109 5.0 6.0 0.00 0.00 0.00 48 1015.1
20260502181732 68 85 6.0 11.0 0.00 0.00 0.00 48 1015.1
20260502181232 68 63 5.0 9.0 0.00 0.00 0.00 49 1015.3
20260502180728 68 106 3.0 8.0 0.00 0.00 0.00 50 1015.0
20260502180226 68 147 2.0 6.0 0.00 0.00 0.00 50 1015.0
20260502170150 62 96 4.0 10.0 0.00 0.00 0.00 57 1015.4
20260502164136 62 54 7.0 11.0 0.00 0.00 0.00 57 1015.4
20260502163632 61 120 7.0 13.0 0.00 0.00 0.00 58 1015.5
20260502163129 60 101 9.0 11.0 0.00 0.00 0.00 58 1015.7
20260502162626 60 85 10.0 14.0 0.00 0.00 0.00 59 1015.6
20260502162123 59 132 9.0 13.0 0.00 0.00 0.00 61 1015.6
20260502161620 59 103 10.0 13.0 0.00 0.00 0.00 62 1015.7
20260502161117 58 111 10.0 13.0 0.00 0.00 0.00 62 1015.5
20260502160615 58 106 9.0 11.0 0.00 0.00 0.00 64 1015.8
20260502160114 58 114 10.0 13.0 0.00 0.00 0.00 64 1015.8
20260502152028 53 43 6.0 10.0 0.00 0.00 0.00 72 1016.3
20260502151525 52 66 6.0 11.0 0.00 0.00 0.00 73 1015.9
20260502151022 52 111 6.0 10.0 0.00 0.00 0.00 73 1016.1
20260502150520 53 98 7.0 10.0 0.00 0.00 0.00 72 1016.0
20260502130404 47 103 6.0 8.0 0.00 0.00 0.00 78 1015.4
20260502123347 49 95 10.0 13.0 0.00 0.00 0.00 76 1015.3
20260502122844 49 91 10.0 14.0 0.00 0.00 0.00 75 1015.3
20260502122340 49 109 8.0 11.0 0.00 0.00 0.00 74 1015.2
20260502121839 49 87 9.0 13.0 0.00 0.00 0.00 75 1015.3
20260502121336 49 75 8.0 10.0 0.00 0.00 0.00 74 1015.3
20260502120833 48 60 7.0 13.0 0.00 0.00 0.00 76 1015.5
20260502120329 48 88 8.0 10.0 0.00 0.00 0.00 76 1015.6
20260502115827 48 91 7.0 9.0 0.00 0.00 0.00 77 1015.5
20260502115324 48 78 7.0 9.0 0.00 0.00 0.00 78 1015.4
20260502114820 48 93 6.0 9.0 0.00 0.00 0.00 77 1015.6
20260502114317 48 97 7.0 9.0 0.00 0.00 0.00 76 1015.6
20260502113814 49 82 7.0 10.0 0.00 0.00 0.00 76 1015.6
20260502113312 49 92 6.0 11.0 0.00 0.00 0.00 75 1015.7
20260502112810 49 109 9.0 11.0 0.00 0.00 0.00 75 1015.6
20260502112307 49 64 6.0 11.0 0.00 0.00 0.00 74 1015.3
20260502111804 50 108 8.0 11.0 0.00 0.00 0.00 72 1015.4
20260502111301 51 100 8.0 10.0 0.00 0.00 0.00 70 1015.3
20260502110759 50 70 6.0 9.0 0.00 0.00 0.00 72 1015.6
20260502110256 50 92 8.0 11.0 0.00 0.00 0.00 73 1015.4
20260502105754 50 72 8.0 15.0 0.00 0.00 0.00 73 1015.2
20260502105250 50 124 8.0 14.0 0.00 0.00 0.00 72 1015.0
20260502104748 50 101 7.0 10.0 0.00 0.00 0.00 72 1015.0
20260502104245 51 113 11.0 14.0 0.00 0.00 0.00 71 1015.1
20260502103743 52 86 9.0 14.0 0.00 0.00 0.00 69 1015.3
20260502103240 51 84 9.0 14.0 0.00 0.00 0.00 71 1015.2
20260502102738 51 63 12.0 14.0 0.00 0.00 0.00 71 1015.1
20260502102233 52 70 11.0 14.0 0.00 0.00 0.00 70 1015.0
20260502101732 51 86 11.0 15.0 0.00 0.00 0.00 71 1015.0
20260502101230 51 89 9.0 14.0 0.00 0.00 0.00 72 1014.9
20260502100727 51 59 9.0 15.0 0.00 0.00 0.00 70 1014.9
20260502100226 52 81 10.0 16.0 0.00 0.00 0.00 69 1015.0
20260502091200 54 88 8.0 17.0 0.00 0.00 0.00 65 1015.0
20260502090657 54 80 11.0 15.0 0.00 0.00 0.00 65 1015.0
20260502090154 54 63 8.0 13.0 0.00 0.00 0.00 65 1015.0
20260502071055 54 59 0.0 0.0 0.00 0.00 0.00 65 1014.6
20260502070553 53 62 0.0 0.0 0.00 0.00 0.00 69 1014.7
20260502070051 53 95 0.0 1.0 0.00 0.00 0.00 67 1014.9
20260502065549 53 27 0.0 0.0 0.00 0.00 0.00 69 1015.0
20260502065047 54 46 0.0 0.0 0.00 0.00 0.00 68 1015.1
20260502064545 54 35 0.0 0.0 0.00 0.00 0.00 65 1014.9
20260502064042 54 19 0.0 0.0 0.00 0.00 0.00 67 1014.8
20260502063539 57 80 0.0 0.0 0.00 0.00 0.00 62 1014.8
20260502063037 59 71 0.0 3.0 0.00 0.00 0.00 57 1014.7
20260502062534 59 77 6.0 10.0 0.00 0.00 0.00 55 1014.8
20260502062032 59 79 2.0 7.0 0.00 0.00 0.00 54 1014.7
20260502061530 55 68 0.0 6.0 0.00 0.00 0.00 61 1014.7
20260502061027 54 76 0.0 1.0 0.00 0.00 0.00 66 1014.8
20260502060522 54 86 0.0 1.0 0.00 0.00 0.00 66 1014.6
20260502060019 55 77 4.0 8.0 0.00 0.00 0.00 65 1014.7
20260502055516 55 63 0.0 2.0 0.00 0.00 0.00 63 1014.6
20260502055015 57 95 0.0 0.0 0.00 0.00 0.00 62 1014.6
20260502054513 57 81 0.0 1.0 0.00 0.00 0.00 62 1014.6
20260502054010 59 99 0.0 1.0 0.00 0.00 0.00 55 1014.5
20260502053507 59 76 0.0 5.0 0.00 0.00 0.00 55 1014.7
20260502053005 56 59 0.0 0.0 0.00 0.00 0.00 58 1014.6
20260502052503 57 84 0.0 0.0 0.00 0.00 0.00 61 1014.6
20260502052001 58 33 0.0 0.0 0.00 0.00 0.00 59 1014.6
20260502051459 58 64 0.0 0.0 0.00 0.00 0.00 59 1014.7
20260502050955 59 64 0.0 0.0 0.00 0.00 0.00 57 1014.5
20260502050452 60 64 0.0 0.0 0.00 0.00 0.00 54 1014.6
20260502045949 60 66 0.0 0.0 0.00 0.00 0.00 57 1014.5
20260502045446 59 73 0.0 0.0 0.00 0.00 0.00 57 1014.3
20260502044943 59 63 0.0 0.0 0.00 0.00 0.00 58 1014.7
20260502044438 60 79 0.0 0.0 0.00 0.00 0.00 56 1014.4
20260502043936 60 56 0.0 0.0 0.00 0.00 0.00 55 1014.3
20260502043434 60 48 0.0 0.0 0.00 0.00 0.00 53 1014.3
20260502042933 60 59 0.0 0.0 0.00 0.00 0.00 52 1014.5
20260502042430 60 70 0.0 0.0 0.00 0.00 0.00 55 1014.3
20260502041927 61 64 0.0 0.0 0.00 0.00 0.00 50 1014.3
20260502041425 61 49 0.0 0.0 0.00 0.00 0.00 46 1014.2
20260502040922 61 52 0.0 0.0 0.00 0.00 0.00 51 1014.3
20260502040418 63 64 0.0 0.0 0.00 0.00 0.00 45 1014.1